This demonstration page uses our WeatherBlox Daily Observations layout. Learn more.

Left ArrowRight Arrow

Hourly Observations for March 22, 2022

Temp ( °F °C ) Dew Point ( °F °C ) Humidity (%) Winds ( mph kmh ) Pressure ( in mb ) Visibility ( mi km ) Precip ( " mm )
12:53 am 00:53 Mostly Clear 30 -1.1 23 -5 75 75 SSW 9 15 30.21 1023 10 16 0.00 0.00
1:53 am 01:53 Partly Cloudy 31 -0.6 23 -5 72 72 WSW 7 11 30.23 1024 10 16 0.00 0.00
2:53 am 02:53 Cloudy 33 0.6 24 -4.4 70 70 SW 9 15 30.25 1024 10 16 0.00 0.00
3:53 am 03:53 Cloudy 36 2.2 25 -3.9 64 64 SW 9 15 30.27 1025 10 16 0.00 0.00
4:53 am 04:53 Cloudy 35 1.7 25 -3.9 67 67 W 7 11 30.28 1026 10 16 0.00 0.00
5:53 am 05:53 Mostly Clear 31 -0.6 23 -5 72 72 SW 13 20 30.30 1026 10 16 0.00 0.00
6:53 am 06:53 Clear 28 -2.2 22 -5.6 78 78 WSW 12 19 30.33 1027 10 16 0.00 0.00
7:53 am 07:53 Sunny 27 -2.8 22 -5.6 81 81 SW 13 20 30.37 1029 10 16 0.00 0.00
8:53 am 08:53 Sunny 34 1.1 24 -4.4 67 67 SW 14 22 30.38 1029 10 16 0.00 0.00
9:53 am 09:53 Sunny 41 5 25 -3.9 53 53 WSW 10 17 30.37 1029 10 16 0.00 0.00
10:53 am 10:53 Sunny 46 7.8 25 -3.9 44 44 W 14 22 30.36 1028 10 16 0.00 0.00
11:53 am 11:53 Sunny 50 10 26 -3.3 39 39 WSW 16 26 30.35 1028 10 16 0.00 0.00
12:53 pm 12:53 Sunny 54 12.2 23 -5 30 30 SW 15 24 30.33 1027 10 16 0.00 0.00
1:53 pm 13:53 Sunny 55 12.8 19 -7.2 24 24 WSW 9 15 30.31 1026 10 16 0.00 0.00
2:53 pm 14:53 Sunny 57 13.9 18 -7.8 22 22 W 13 20 30.28 1025 10 16 0.00 0.00
3:53 pm 15:53 Sunny 58 14.4 17 -8.3 20 20 W 13 20 30.24 1024 10 16 0.00 0.00
4:53 pm 16:53 Sunny 59 15 16 -8.9 18 18 W 12 19 30.24 1024 10 16 0.00 0.00
5:53 pm 17:53 Sunny 58 14.4 16 -8.9 19 19 WSW 14 22 30.23 1024 10 16 0.00 0.00
6:53 pm 18:53 Sunny 56 13.3 16 -8.9 21 21 WSW 3 6 30.22 1024 10 16 0.00 0.00
7:53 pm 19:53 Clear 43 6.1 16 -8.9 34 34 SSE 7 11 30.24 1024 10 16 0.00 0.00
8:53 pm 20:53 Clear 39 3.9 17 -8.3 41 41 ESE 7 11 30.23 1024 10 16 0.00 0.00
9:53 pm 21:53 Clear 39 3.9 18 -7.8 43 43 ENE 7 11 30.21 1023 10 16 0.00 0.00
10:53 pm 22:53 Clear 36 2.2 18 -7.8 48 48 Calm 30.20 1023 10 16 0.00 0.00
11:53 pm 23:53 Clear 31 -0.6 19 -7.2 61 61 WSW 5 7 30.22 1023 10 16 0.00 0.00

Powered by AerisWeather